Home   Weather   Yuma   Past weeks

Flag for USA Past Weather in Yuma, Arizona, USA — Yesterday and Last 2 Weeks

Now
85 °F

Partly cloudy.


Feels Like: 83 °F
Forecast: 77 / 92 °F
Wind: 16 mph from Northeast

Location: Yuma Marine Corps Air Station

Current Time: Sep 26, 2016 at 10:19:30 PM

Latest Report: Sep 26, 2016 at 9:57 PM


Visibility: 10 mi

Pressure: 29.89 "Hg

Humidity: 29%

Dew Point: 49 °F

Location of YumaLocation

Past Weather in Yuma — Graph

°F

Yuma Temperature Yesterday

Maximum temperature yesterday: 97 °F (at 2:57 PM)
Minimum temperature yesterday: 76 °F (at 12:57 AM)
Average temperature yesterday: 86 °F

High & Low Weather Summary for the Past Weeks

 TemperatureHumidityPressure
High107 °F (Sep 18, 4:57 PM)88% (Sep 20, 8:57 AM)30.00 "Hg (Sep 20, 8:57 AM)
Low66 °F (Sep 24, 5:57 AM)6% (Sep 15, 2:57 PM)29.65 "Hg (Sep 12, 5:57 PM)
Average84 °F34%29.85 "Hg
* Reported Sep 11 8:57 PM — Sep 26 8:57 PM, Yuma, Weather by CustomWeather, © 2016

Note: Actual official high and low records may vary slightly from our data, if they occured in-between our weather recording intervals... More about our weather records

Advertising

Yuma Weather History for the Previous 24 Hours

Scroll right to see more
 ConditionsComfort  
Time TempWeatherWind HumidityBarometerVisibility
8:57 PM
Mon, Sep 26
87 °FPartly cloudy.17 mph27%29.89 "Hg10 mi
7:57 PM87 °FPartly cloudy.12 mph27%29.86 "Hg6 mi
6:57 PM88 °FPartly cloudy.16 mph25%29.84 "Hg6 mi
5:57 PM88 °FBroken clouds.15 mph26%29.84 "Hg6 mi
4:57 PM90 °FBroken clouds.22 mph23%29.84 "Hg4 mi
3:57 PM94 °FBroken clouds.24 mph20%29.85 "Hg6 mi
2:57 PM97 °FPartly sunny.24 mph17%29.85 "Hg4 mi
1:57 PM99 °FPartly sunny.16 mph16%29.87 "Hg10 mi
12:57 PM97 °FPartly sunny.14 mph18%29.90 "Hg10 mi
11:57 AM96 °FBroken clouds.13 mph20%29.93 "Hg10 mi
10:57 AM94 °FPartly sunny.15 mph19%29.95 "Hg10 mi
9:57 AM90 °FPartly sunny.16 mph17%29.96 "Hg10 mi
8:57 AM83 °FPartly sunny.12 mph21%29.96 "Hg10 mi
7:57 AM81 °FPartly sunny.7 mph22%29.95 "Hg10 mi
6:57 AM77 °FPartly sunny.9 mph24%29.92 "Hg10 mi
5:57 AM78 °FClear.10 mph24%29.90 "Hg10 mi
4:57 AM78 °FClear.10 mph23%29.88 "Hg10 mi
3:57 AM78 °FClear.8 mph23%29.87 "Hg10 mi
2:57 AM81 °FClear.9 mph18%29.86 "Hg10 mi
1:57 AM85 °FClear.16 mph16%29.87 "Hg10 mi
12:57 AM82 °FClear.9 mph18%29.88 "Hg10 mi
11:57 PM
Sun, Sep 25
82 °FClear.5 mph19%29.88 "Hg10 mi
10:57 PM84 °FClear.7 mph18%29.88 "Hg10 mi
Weather by CustomWeather, © 2016

See weather overviewHow to use our weather pages